Theta_e
324 324 324 324 324 324 324 324 324 323 323 323 323 322 323 322 322 322 322 322 322 322 322 322 322 322 321 320 320 320 321 322 323 323 323 323 322 321 320 320 319 319 318 317 317 316 316 316 316 315 315 314 314 314 314 314 313 312 310 309 307 305 303 301 300 298 297 297 297
324 324 324 324 324 324 324 324 324 323 324 324 324 323 323 322 322 322 322 322 323 322 322 322 322 321 320 319 320 320 320 320 322 323 323 323 322 321 320 320 320 319 318 317 316 316 316 316 316 316 315 314 314 314 313 314 313 311 310 308 307 306 304 302 301 299 299 298 298
324 324 324 324 324 324 324 323 323 323 323 323 323 323 323 322 322 322 322 322 322 321 321 321 321 320 319 319 319 320 320 320 320 322 323 323 322 321 321 321 319 319 318 317 317 317 316 316 316 316 315 314 314 314 313 312 312 311 310 309 308 307 305 304 301 300 299 299 300
324 324 324 324 324 324 324 324 323 323 323 323 322 323 322 323 323 323 322 321 320 320 321 321 321 320 319 319 318 318 318 319 320 321 323 323 322 322 321 321 320 318 318 317 317 317 317 317 316 316 316 314 314 313 313 311 311 311 310 309 308 307 306 303 301 300 301 301 302
324 324 324 324 324 324 324 324 324 323 323 323 323 323 322 322 322 321 321 321 321 321 320 319 320 320 319 318 317 317 317 317 319 321 322 323 322 322 321 320 319 319 318 318 317 317 317 317 316 316 315 315 314 314 313 311 311 311 310 308 307 307 306 304 303 303 303 303 303
324 324 325 325 324 324 324 325 323 323 323 324 323 323 322 322 322 322 321 321 320 320 318 318 319 318 318 317 316 317 317 316 319 320 321 322 322 322 321 320 319 319 318 318 317 317 317 316 315 314 314 313 313 312 312 311 311 310 309 308 306 306 306 305 304 303 304 304 304
324 324 325 325 324 324 325 324 324 323 323 323 323 322 322 322 321 320 320 321 319 319 318 319 319 319 318 316 316 317 317 317 318 319 320 322 322 322 321 320 319 319 318 318 317 317 317 316 314 314 313 312 312 311 310 311 310 309 308 306 304 304 305 305 304 304 305 304 304
325 324 325 324 325 324 324 324 324 323 323 323 322 322 321 321 320 319 319 319 319 318 318 319 318 318 317 317 317 317 317 316 318 318 318 320 321 321 321 320 320 319 318 318 317 317 317 316 315 314 313 311 311 310 309 310 310 309 307 305 304 304 304 305 305 305 305 304 303
324 324 325 324 324 324 324 324 324 323 323 323 322 321 321 320 319 319 318 318 318 318 318 319 318 317 317 316 316 317 317 317 317 318 318 319 320 320 320 320 319 318 318 318 317 317 316 315 314 314 313 312 311 310 309 309 309 308 306 304 304 304 304 304 304 304 304 303 302
324 324 324 324 324 324 324 324 323 323 323 322 321 321 321 320 319 319 319 319 318 318 318 318 317 316 316 316 316 317 317 318 318 318 318 319 319 320 320 320 319 318 318 317 317 316 315 315 314 313 312 311 311 309 309 308 308 307 305 304 304 303 303 303 303 303 303 302 301
324 324 324 324 324 324 324 323 323 323 322 322 320 320 320 320 319 319 319 319 318 317 317 317 316 316 316 316 317 317 317 318 319 319 319 320 320 320 319 319 318 318 317 317 316 316 315 314 313 312 311 310 309 308 308 307 307 306 305 304 303 303 302 302 302 302 302 301 300
324 324 324 324 324 323 323 323 323 323 322 321 320 320 320 320 319 319 319 318 317 317 317 316 316 317 317 317 317 317 318 318 318 319 319 320 320 319 319 318 318 317 316 316 316 316 315 313 312 311 309 308 308 308 308 307 307 305 304 303 303 302 302 301 301 301 301 300 299
324 323 323 324 323 323 323 323 322 322 321 321 320 320 319 319 319 319 319 318 317 317 317 316 317 317 317 317 317 318 318 318 318 319 319 320 319 318 318 318 317 316 316 315 315 315 314 312 311 309 308 308 308 308 308 307 306 305 303 303 302 302 301 301 301 300 300 299 298
323 322 323 322 322 322 323 322 322 322 321 320 320 320 319 319 319 319 318 318 317 317 317 316 317 317 317 317 318 318 318 318 318 319 319 318 318 318 317 317 316 315 315 315 314 314 313 311 310 309 309 308 308 308 307 307 305 304 303 303 302 301 301 300 300 299 299 297 297
322 322 322 322 322 322 322 322 322 322 321 320 320 320 319 319 319 319 318 318 317 317 317 317 317 317 317 317 318 318 318 318 318 318 318 317 317 316 316 316 315 315 314 314 312 311 311 310 310 310 309 308 308 307 307 306 305 304 303 303 302 301 301 300 299 298 297 296 295
321 321 321 322 322 322 322 322 322 322 320 320 319 319 319 319 319 318 318 317 317 317 318 317 317 317 317 317 318 318 318 318 318 318 317 316 316 316 315 315 314 314 312 311 311 310 310 310 310 310 309 308 307 306 305 305 304 303 303 302 302 301 300 299 298 297 296 296 296
321 321 321 321 322 322 322 322 322 321 320 319 319 319 319 319 319 318 318 317 318 317 317 317 317 317 317 317 318 318 318 318 318 317 317 316 315 315 315 314 313 312 311 311 311 311 310 310 309 309 307 307 306 305 304 304 303 303 302 302 301 301 300 299 298 297 296 296 296
320 321 321 321 322 321 322 322 321 320 320 319 319 319 319 319 319 318 318 318 318 317 317 317 317 317 317 317 318 318 318 318 317 317 316 315 315 314 314 312 312 312 311 311 311 310 309 308 308 307 306 305 304 304 303 303 303 302 301 301 300 300 299 298 298 297 296 295 295
320 320 321 321 321 321 321 321 320 320 319 319 319 319 319 319 318 318 318 318 318 318 317 317 317 317 317 317 317 318 318 317 317 316 315 315 314 314 313 312 312 311 311 310 309 309 308 307 306 305 305 304 303 303 303 302 302 301 300 300 299 298 298 297 297 297 296 295 295
320 320 320 321 321 321 321 321 320 319 319 319 319 319 318 318 318 318 318 318 318 318 317 317 317 317 317 317 317 317 317 317 316 315 314 314 314 313 312 312 311 310 310 309 308 307 307 306 305 305 304 303 303 302 302 301 300 300 300 299 298 298 297 297 297 296 295 295 294
320 321 321 321 321 321 321 320 320 319 319 319 319 318 318 318 318 318 318 318 318 318 318 317 317 317 317 317 316 316 316 316 315 314 314 314 313 312 312 311 310 309 308 308 307 306 305 305 304 304 303 303 302 302 301 300 300 299 299 299 298 297 297 296 295 294 293 293 292
320 321 321 321 321 321 321 320 320 319 319 319 319 318 318 318 318 318 318 318 318 318 317 317 317 316 316 316 315 315 315 315 314 314 314 313 312 312 311 310 309 308 307 306 306 305 305 304 304 303 303 302 302 301 301 300 299 299 298 298 297 296 296 295 294 293 293 292 290
320 320 321 321 321 320 320 320 320 319 319 319 319 318 318 318 318 318 318 318 318 317 316 316 317 316 316 316 315 314 314 314 314 313 313 312 311 310 309 309 308 307 306 305 305 304 304 303 303 302 302 301 301 301 300 300 299 298 297 296 296 295 295 295 293 293 292 290 288
320 321 321 321 320 320 320 320 319 319 319 318 318 318 318 318 318 318 318 317 317 317 317 317 317 316 316 315 315 314 314 313 312 312 311 310 309 309 309 308 307 306 305 305 305 304 304 303 302 301 301 301 300 300 299 298 298 297 297 296 295 294 294 294 293 292 290 287 287
320 320 320 321 320 320 320 319 319 318 318 318 318 318 318 318 318 317 317 317 316 317 317 317 316 316 315 314 314 314 313 312 311 310 309 309 308 308 307 307 306 306 306 305 306 306 305 304 302 301 301 300 300 299 298 297 297 297 296 296 295 293 292 292 290 288 286 285 286
319 319 320 320 319 319 319 319 318 318 318 318 318 317 317 317 317 317 317 316 316 317 317 316 315 315 314 314 314 313 312 311 310 309 308 307 307 307 307 306 306 306 306 306 306 306 306 305 304 302 301 300 299 298 297 297 297 297 296 295 294 293 292 291 288 287 285 285 285
319 319 319 320 319 319 318 319 318 318 318 317 317 317 317 317 317 317 316 316 316 316 316 316 315 315 314 314 313 312 311 310 309 308 308 307 307 306 306 306 306 305 306 307 307 307 306 306 304 303 301 299 298 297 296 295 295 295 295 294 293 293 292 289 287 286 285 285 285
319 319 319 319 319 318 318 318 318 318 317 317 317 317 317 317 317 316 316 316 316 316 315 315 315 315 314 313 312 311 310 309 309 308 308 307 306 306 305 305 306 306 307 307 307 307 306 306 304 303 301 298 296 295 294 294 294 295 295 294 293 291 288 286 285 285 285 285 285
319 319 319 319 318 318 318 318 317 317 317 317 317 317 317 316 316 316 316 316 315 315 315 314 315 314 313 312 311 309 309 308 308 307 307 306 306 305 305 305 305 306 307 308 307 307 306 305 304 302 301 298 296 295 294 294 294 294 294 292 290 287 286 285 284 284 284 284 285
319 319 319 318 318 318 318 317 317 317 317 317 317 316 316 316 316 316 315 315 315 314 314 315 314 312 311 310 309 308 308 307 307 307 306 305 305 305 305 305 305 306 307 307 307 306 305 304 303 302 301 299 296 295 294 293 293 292 290 289 286 285 284 284 284 284 284 285 285
319 319 319 318 317 317 317 317 317 317 317 317 316 316 316 316 315 315 315 315 314 314 314 313 312 310 309 308 308 307 307 306 306 306 305 305 305 305 305 305 305 305 306 306 306 305 305 304 303 302 300 299 296 294 292 291 290 289 287 286 285 284 283 283 284 284 285 285 285
318 318 318 317 317 317 317 317 317 317 317 316 316 316 316 315 315 315 315 314 314 313 312 311 309 308 307 307 307 306 306 305 305 305 305 305 305 304 304 304 305 305 305 306 305 305 304 303 302 301 300 298 295 292 290 289 288 287 286 285 284 284 284 285 283 283 284 285 286
318 318 317 317 317 317 317 317 317 317 316 316 316 316 315 315 314 314 314 313 312 311 310 309 308 307 306 305 305 305 305 305 305 305 305 304 304 303 303 304 304 304 305 305 305 304 303 302 301 300 298 296 293 290 289 288 288 287 287 286 285 285 284 284 284 284 285 285 285
318 317 317 317 316 317 316 316 316 316 316 316 315 315 314 314 314 313 312 312 311 310 309 308 307 306 306 305 305 305 305 305 304 304 304 304 303 303 303 303 304 305 305 305 304 303 302 301 300 298 297 295 292 290 289 289 289 288 288 287 287 286 286 286 285 285 285 285 285
317 317 317 316 316 316 316 316 316 316 315 315 314 314 313 313 312 312 311 311 310 309 308 307 306 306 306 305 305 304 304 304 303 303 303 303 303 303 303 303 303 304 304 304 303 302 301 300 299 297 296 293 291 290 289 289 288 288 288 287 287 287 286 286 286 285 285 285 284
317 317 316 316 316 316 316 316 315 315 314 313 313 313 312 312 312 311 310 309 308 307 306 305 305 305 304 304 304 304 304 303 303 303 303 303 303 302 302 302 303 303 303 303 302 301 300 299 298 297 295 292 291 290 289 289 288 288 287 287 286 286 286 286 286 285 285 285 284
317 317 316 316 316 316 316 315 314 314 313 312 312 312 311 311 310 309 309 308 306 305 305 304 304 303 303 303 303 303 303 303 302 303 303 303 302 302 302 301 302 302 302 302 301 301 300 299 297 296 294 291 290 290 289 289 288 288 287 286 286 286 286 286 286 286 285 285 286
317 317 316 316 315 315 315 314 314 313 312 312 312 311 310 309 309 308 307 306 305 304 303 303 303 302 302 302 302 302 302 303 303 303 302 302 302 301 301 300 300 301 301 301 301 300 299 298 297 295 293 290 290 289 289 288 288 287 287 286 286 285 285 287 287 287 287 287 289
317 317 316 316 315 315 314 314 313 312 312 311 310 310 309 308 308 307 307 306 305 303 303 302 302 302 302 302 302 302 302 302 303 302 302 301 301 301 300 299 299 300 300 300 300 299 298 298 297 295 294 291 290 289 289 288 287 287 286 286 286 285 284 285 285 286 287 288 292
317 317 316 316 315 315 314 313 312 312 311 310 309 308 308 307 307 306 306 305 304 303 302 302 301 301 302 302 301 301 301 301 301 301 301 301 301 300 300 299 298 299 299 299 299 299 298 297 297 295 293 291 289 289 289 288 287 286 286 286 286 285 284 284 284 284 284 285 289
317 317 316 316 315 314 313 312 311 311 310 309 308 308 307 306 306 305 304 304 303 302 302 301 301 301 301 301 301 300 299 299 299 300 300 300 300 300 299 298 297 297 298 298 299 299 298 297 296 295 293 291 289 289 288 288 287 286 285 285 285 285 284 283 283 283 282 281 283
Wind_Speed
12 11 10 9 9 8 8 7 7 6 6 7 7 7 6 6 6 6 6 6 6 5 5 5 5 5 5 6 7 7 7 7 8 9 9 9 9 9 9 9 9 9 10 10 10 9 9 9 7 5 4 5 5 6 6 6 6 6 6 7 6 6 5 6 5 5 5 5 3
13 12 11 10 9 8 7 7 7 7 6 6 6 7 6 6 6 6 6 6 6 5 5 4 5 5 6 7 7 7 7 7 7 8 8 9 9 9 9 9 9 10 10 10 10 9 8 8 7 6 4 4 5 5 6 6 6 6 6 7 6 4 4 4 4 4 4 4 3
14 13 12 11 10 9 8 8 8 8 8 7 6 6 6 6 6 6 6 6 5 5 5 4 5 6 7 7 6 6 7 7 7 7 7 8 8 8 8 9 9 10 10 10 10 9 9 9 8 7 6 5 6 6 6 5 5 5 6 6 4 3 3 2 2 2 3 3 3
15 14 13 12 13 12 11 9 9 9 8 7 6 6 6 6 5 5 5 5 5 5 5 5 5 6 6 6 6 6 6 7 7 7 7 7 7 8 8 9 9 10 11 11 11 11 11 10 8 7 6 7 8 7 6 5 5 5 4 4 3 3 3 3 2 2 3 3 3
15 15 14 13 14 13 12 10 10 9 8 6 6 6 6 5 5 5 5 5 6 6 5 6 5 5 6 6 7 7 7 7 7 6 6 6 7 7 8 8 9 9 10 10 11 11 11 10 7 6 6 6 6 6 5 5 5 4 3 2 2 2 3 3 3 3 3 3 3
16 15 15 13 14 13 11 10 10 9 8 7 7 7 7 6 6 6 6 6 6 6 6 7 6 6 6 7 7 7 7 7 7 6 6 6 6 7 7 8 9 9 8 9 9 9 9 8 5 4 4 4 4 4 4 5 5 4 3 2 2 2 3 3 3 3 3 3 3
16 16 15 14 14 12 11 10 9 9 8 8 9 9 9 8 7 7 7 7 6 6 6 6 7 7 7 7 7 7 7 7 6 6 6 6 6 7 7 8 9 9 9 9 8 8 7 6 4 3 3 3 3 4 4 5 5 4 4 3 2 2 3 4 3 3 4 5 5
15 15 15 14 13 13 12 11 10 9 9 8 9 10 10 9 9 8 8 6 6 6 6 6 7 8 8 7 7 7 7 7 7 6 6 6 7 7 8 8 9 9 9 9 9 8 7 5 4 4 4 3 3 3 4 6 5 5 4 4 3 3 3 3 3 3 4 6 6
14 14 15 14 13 13 12 11 11 10 10 9 10 10 10 10 9 9 8 6 6 6 6 6 7 8 8 8 8 8 7 7 7 6 6 6 7 7 8 8 8 9 9 8 8 8 8 5 4 4 4 4 3 4 5 6 6 6 5 5 4 4 4 4 4 4 5 6 6
14 14 14 14 13 12 12 11 11 11 10 10 10 10 10 10 10 9 8 6 6 7 7 6 7 8 8 9 8 8 7 7 7 7 6 7 7 8 8 8 8 8 8 7 7 7 7 6 5 5 4 4 4 4 5 6 7 7 6 4 5 5 6 5 5 5 6 6 6
15 14 14 13 13 12 11 11 10 10 10 9 9 9 10 10 9 8 8 7 7 7 8 7 8 8 9 8 8 8 7 7 7 7 7 7 8 8 8 8 8 8 7 7 6 6 6 5 5 5 5 4 5 5 6 7 8 8 7 6 7 7 7 6 6 5 5 6 6
14 14 14 13 12 12 11 11 10 9 9 9 9 9 9 9 9 9 8 8 8 8 8 7 8 9 8 7 7 7 7 7 7 7 7 7 8 8 8 8 8 8 8 7 6 6 5 5 6 6 6 5 5 5 6 8 8 9 8 8 8 8 8 7 6 5 5 5 6
14 13 13 12 12 12 11 11 10 9 9 9 9 9 9 8 9 9 9 9 9 8 7 7 8 8 8 7 7 7 7 7 7 7 7 7 8 8 8 8 8 8 8 8 7 6 6 6 7 7 7 6 5 6 7 8 9 9 9 9 8 8 8 7 6 5 5 5 6
13 13 12 12 12 12 11 11 9 9 9 9 9 9 8 8 9 9 9 9 9 8 7 7 7 7 7 8 8 7 7 7 7 7 7 7 8 8 8 8 8 8 8 7 7 7 7 7 7 8 8 8 7 7 7 8 9 9 9 9 9 8 8 7 6 6 6 6 6
13 13 12 12 12 12 11 11 9 9 9 9 9 9 8 8 8 8 8 9 8 8 8 7 6 6 7 8 8 8 8 8 8 8 8 8 8 8 8 8 8 8 7 6 6 6 6 7 7 7 8 8 8 8 8 8 9 9 9 9 9 8 8 7 6 6 6 6 6
13 13 12 12 12 12 11 11 9 8 8 9 9 9 8 8 8 8 8 9 8 7 7 7 7 6 6 7 8 8 8 8 8 8 8 9 8 8 8 8 8 8 7 7 6 5 6 6 7 8 8 9 8 8 9 9 9 9 9 9 9 8 8 7 6 6 5 6 5
14 13 13 13 13 13 12 11 9 8 8 9 9 9 9 8 7 8 8 9 8 8 8 8 7 7 7 7 7 7 8 8 8 8 9 9 9 9 9 8 8 7 7 7 7 7 8 7 8 8 9 9 9 9 9 9 9 9 9 9 8 8 7 7 6 5 5 6 5
14 14 14 14 14 14 13 12 10 10 10 10 10 9 9 9 8 8 8 9 9 9 9 9 8 8 8 8 7 7 7 8 8 8 8 9 9 9 8 8 8 7 8 8 9 9 9 9 9 9 9 9 9 9 9 9 9 9 9 9 8 7 7 6 5 5 5 6 5
15 14 14 15 15 14 14 13 11 11 11 11 10 9 9 9 10 9 9 9 9 10 10 10 9 8 8 9 8 7 7 7 8 9 8 8 8 8 8 8 8 8 8 9 9 10 10 10 10 10 10 9 9 9 9 9 9 9 9 9 8 7 6 6 6 6 6 6 6
15 15 15 15 15 14 13 13 12 12 11 11 11 10 10 10 10 10 10 10 10 10 11 10 10 9 9 9 9 8 7 6 8 8 8 8 8 9 9 9 9 9 9 9 10 10 11 11 11 11 11 11 11 10 10 10 10 9 9 8 7 7 7 6 7 7 7 6 6
15 15 14 14 13 13 13 12 12 12 12 11 12 11 11 10 11 11 11 11 11 11 11 11 11 11 10 10 9 9 7 6 7 8 8 9 9 9 10 10 10 10 9 10 10 10 11 11 11 11 11 11 11 11 11 10 10 10 9 8 7 7 7 7 7 7 7 7 6
14 14 13 13 12 12 12 12 12 12 12 12 12 12 11 11 11 11 11 11 11 11 11 11 11 12 11 11 10 9 8 7 8 8 8 9 9 9 10 10 11 11 10 10 10 11 11 11 11 11 11 11 11 11 11 11 10 10 9 9 9 8 8 7 7 7 7 7 6
13 12 12 12 11 11 11 12 12 12 12 12 12 12 11 11 11 11 11 11 11 11 11 11 11 11 11 11 11 10 10 9 9 9 9 9 10 10 10 10 11 11 11 10 10 11 11 11 11 11 10 10 11 11 11 11 10 10 10 10 9 9 8 8 7 7 7 7 6
12 12 11 11 11 12 12 12 12 12 12 12 12 12 12 11 11 11 11 12 12 11 11 10 10 10 11 11 11 11 12 12 11 11 10 10 10 10 10 9 10 10 9 8 9 10 11 10 10 9 9 10 10 10 10 10 9 10 10 10 9 8 8 8 8 8 8 7 6
12 12 11 11 12 12 12 12 12 12 12 12 12 12 12 12 12 12 12 12 12 12 11 11 10 10 10 10 11 11 12 13 13 12 12 11 10 10 9 9 8 8 8 9 13 15 14 12 10 9 8 9 9 9 9 9 9 9 9 9 9 8 8 8 9 8 8 7 6
13 12 12 13 13 12 12 12 12 12 12 12 12 12 12 12 12 13 13 13 12 12 12 12 11 10 10 10 11 11 11 11 12 12 12 12 11 10 9 8 7 7 8 11 16 18 18 17 14 12 10 8 9 9 8 8 8 9 9 9 9 8 8 8 8 8 7 7 6
13 13 13 14 13 13 13 13 13 13 13 13 13 13 13 13 13 13 13 13 13 12 12 11 11 11 11 11 12 12 11 10 11 12 12 12 12 11 9 8 7 7 9 15 18 19 19 18 17 15 12 9 9 8 8 8 8 8 9 8 8 8 8 8 8 7 7 6 6
14 14 14 15 14 14 13 13 13 13 14 14 14 14 14 14 14 14 13 13 13 12 11 10 10 10 9 9 11 11 12 11 11 11 11 12 12 11 10 8 8 9 12 18 20 20 19 19 18 16 14 11 9 8 8 8 8 8 7 7 7 7 7 7 7 6 6 7 6
15 15 16 16 15 14 14 14 14 14 14 15 15 14 14 14 14 14 14 14 14 12 11 9 8 8 8 9 10 11 12 12 11 11 11 11 11 11 10 10 10 12 16 20 20 20 20 19 19 18 16 13 9 7 6 6 7 7 6 6 6 6 6 6 6 6 6 7 7
16 16 16 17 16 15 15 15 15 15 15 14 15 15 15 14 14 15 15 14 14 12 10 9 9 9 10 10 11 11 11 11 11 11 12 12 12 11 11 11 11 13 17 21 21 20 20 20 20 19 17 15 11 8 7 6 6 6 6 5 6 6 7 7 7 7 7 7 8
16 17 17 17 17 16 16 15 15 15 15 14 15 15 15 15 15 14 14 14 13 12 11 11 12 12 12 11 11 11 11 11 11 11 12 13 13 12 12 12 12 14 17 21 21 21 21 20 20 19 18 16 12 9 7 7 7 6 6 6 6 7 7 7 7 8 8 9 8
17 17 18 18 17 17 16 16 16 16 16 16 16 15 15 15 14 14 13 13 13 13 13 13 14 13 13 12 12 12 12 12 12 12 12 13 13 13 13 12 12 14 17 21 21 21 21 21 20 19 18 16 13 10 9 8 8 7 7 7 8 8 8 7 7 8 9 9 9
18 18 18 18 18 17 17 17 16 16 16 16 16 15 15 14 14 13 12 12 13 14 14 14 15 14 14 13 13 13 13 12 13 13 14 14 14 14 13 12 12 14 18 21 21 21 21 21 21 20 19 17 13 11 9 9 8 8 8 8 8 9 9 9 9 9 9 9 8
18 18 18 18 18 18 17 17 17 16 16 16 15 15 14 14 14 13 12 11 11 12 13 14 14 14 14 14 14 13 13 12 13 13 14 14 14 14 13 11 10 14 18 22 22 22 22 22 21 21 19 17 12 10 10 10 9 9 9 9 9 9 9 10 9 9 9 9 8
19 19 19 19 18 18 18 17 17 16 16 15 15 14 14 14 14 13 12 11 11 11 12 12 12 13 13 13 13 14 14 14 13 13 14 14 14 14 13 12 12 15 19 22 22 22 22 22 22 21 19 15 11 10 10 11 11 11 11 11 11 11 10 10 9 9 9 8 8
20 20 20 19 19 19 18 18 17 17 16 16 15 15 14 14 13 13 13 12 13 12 12 12 12 13 13 13 13 13 14 15 14 14 14 14 14 15 15 14 14 16 20 21 22 22 23 22 22 21 18 13 10 9 10 10 10 11 11 12 11 11 11 10 9 8 8 8 7
20 20 20 20 19 19 19 18 18 17 17 16 16 15 15 14 13 13 13 13 13 13 13 13 13 13 13 13 12 12 13 14 15 15 14 14 15 15 15 14 14 16 19 21 22 22 22 22 22 20 16 12 10 9 9 9 9 10 11 11 11 10 9 9 8 8 8 8 7
20 21 21 20 20 19 19 18 18 18 17 17 16 15 15 14 13 13 12 13 14 14 14 13 13 13 13 13 13 12 13 13 15 15 15 15 15 16 16 15 14 15 17 20 22 22 22 22 21 18 15 11 10 9 9 9 9 9 9 9 9 8 8 7 7 7 8 8 10
20 21 21 21 21 20 20 19 19 18 18 17 16 15 15 14 13 12 12 12 13 14 14 14 14 14 13 14 13 13 13 13 14 15 15 15 15 16 16 15 14 14 16 20 21 22 22 21 20 19 16 12 10 9 9 9 9 9 9 8 8 7 7 6 5 5 6 9 13
20 21 21 21 21 21 20 19 18 18 17 17 17 16 15 14 13 12 12 12 13 14 14 14 15 14 14 14 14 14 13 12 12 13 14 15 15 16 16 15 14 14 16 19 21 22 21 21 20 19 15 11 9 8 8 8 9 9 8 7 7 6 6 5 5 4 4 6 9
19 20 20 20 20 20 20 19 18 17 17 17 17 16 15 14 13 13 12 12 12 13 13 14 15 15 14 13 13 14 14 13 12 12 13 14 14 15 15 15 14 14 15 17 20 21 21 21 20 18 15 11 9 8 8 8 9 9 8 7 7 6 6 5 5 4 4 3 4
Wind_Direction
195 195 194 194 193 194 195 196 194 191 188 187 188 187 184 182 185 187 188 188 190 190 189 187 187 187 186 184 186 189 193 195 193 191 190 189 187 184 182 182 180 176 173 172 173 177 183 189 190 188 189 192 200 206 210 210 206 204 203 205 209 208 203 200 202 198 194 193 189
196 196 195 193 192 193 194 194 194 192 190 189 188 185 182 181 184 185 186 188 188 186 183 182 183 183 182 183 183 185 188 192 192 191 190 190 185 181 178 180 177 174 171 171 172 176 182 188 189 189 188 191 198 206 212 213 205 202 202 205 205 199 191 195 201 194 186 183 170
197 196 195 195 194 194 194 195 194 192 190 188 186 183 181 180 182 183 184 185 182 179 176 179 179 179 179 179 180 181 184 187 188 190 190 190 184 179 176 178 176 173 172 172 175 179 184 187 189 189 189 191 196 204 210 212 202 197 198 202 196 182 170 181 181 169 159 156 143
198 197 196 197 196 195 195 195 193 190 188 184 181 179 179 179 180 180 179 176 173 173 175 175 175 176 176 175 176 179 181 181 183 185 188 187 181 176 174 174 173 173 174 176 179 183 186 187 190 191 191 192 197 202 205 203 193 191 192 192 176 163 161 165 147 136 133 133 131
199 198 198 199 198 197 196 194 190 187 184 180 178 179 180 178 176 174 172 172 176 177 174 169 170 171 171 169 172 174 176 177 178 181 183 181 176 173 170 168 168 171 174 178 182 186 188 188 189 190 190 189 195 199 196 183 179 179 180 171 156 157 158 150 133 127 127 128 126
200 200 200 200 199 197 196 193 188 184 182 179 179 181 181 178 175 174 175 176 175 169 164 161 163 164 164 164 168 171 173 175 176 178 178 175 172 169 166 163 164 166 172 179 184 186 187 183 183 182 182 181 188 187 177 164 164 166 167 161 143 135 134 132 126 125 127 128 125
200 200 200 200 198 197 195 192 185 182 180 179 181 183 182 178 175 174 173 171 166 161 160 162 164 164 163 164 167 170 172 174 176 175 173 170 168 167 166 163 162 164 170 178 182 184 182 173 172 173 174 173 176 169 161 155 156 157 155 139 108 99 105 115 118 123 125 125 121
201 200 200 199 197 195 193 189 183 180 181 183 185 183 180 174 171 168 167 162 162 162 164 166 166 164 163 164 168 170 171 171 173 173 170 164 164 165 165 163 162 166 171 176 179 178 174 167 168 171 174 173 170 162 155 150 148 145 136 118 97 87 92 105 111 117 119 118 114
200 200 199 198 196 194 191 187 182 181 183 186 184 181 176 169 167 164 163 163 163 163 164 166 164 162 162 164 167 169 170 170 171 170 166 161 162 163 164 162 164 167 172 176 175 172 169 164 169 174 176 173 166 155 147 143 138 131 121 110 102 95 93 97 102 107 109 110 109
198 197 197 196 194 191 188 185 182 182 182 183 180 175 171 167 165 165 165 163 159 160 163 164 160 159 161 164 167 168 169 168 168 167 164 161 162 163 163 162 163 166 169 173 171 168 164 162 167 169 167 159 147 139 135 133 127 121 114 110 107 102 97 94 98 103 106 107 107
196 195 194 193 191 188 185 183 182 182 181 180 175 172 170 167 167 166 163 156 156 161 164 161 158 159 162 165 166 167 166 166 166 165 164 163 163 162 161 160 161 162 164 166 166 163 162 160 159 155 148 136 130 129 128 126 120 116 113 111 108 105 101 97 99 102 105 107 106
194 193 192 190 187 183 181 182 182 182 180 176 171 170 169 168 166 162 158 154 158 162 163 158 158 160 162 164 164 163 162 163 164 163 163 162 161 159 157 157 158 159 160 161 162 161 159 158 152 146 139 131 129 129 128 125 120 117 114 112 109 107 105 104 102 103 105 105 102
192 190 188 187 183 180 180 182 181 180 178 173 170 169 168 165 162 159 157 156 160 161 159 156 158 159 161 161 160 160 161 161 162 161 160 158 156 154 154 154 156 158 159 160 162 161 160 157 151 144 139 134 132 130 129 126 122 119 117 114 111 109 109 109 107 105 101 99 99
189 187 185 183 179 178 179 182 181 179 175 171 168 166 164 160 160 159 158 157 158 156 154 154 157 159 159 157 157 158 158 158 157 155 153 151 150 150 151 153 156 158 160 161 162 161 158 155 148 142 137 132 128 125 124 123 121 119 119 117 114 114 113 112 110 107 103 101 101
186 184 182 179 177 178 179 181 181 177 172 168 166 163 160 158 160 159 157 155 154 152 151 153 155 155 153 152 153 154 155 153 151 149 146 145 146 148 149 151 154 156 156 155 153 149 144 140 137 133 128 125 122 119 117 116 116 117 117 118 117 116 115 114 112 110 109 110 108
184 182 179 177 177 178 179 180 178 173 168 166 164 160 158 157 158 156 153 152 151 150 150 152 151 149 147 147 149 149 149 148 146 145 144 145 146 148 149 149 151 150 146 139 131 123 119 119 121 120 119 118 116 115 113 112 112 112 113 114 115 115 115 114 113 112 112 112 111
182 180 178 176 178 179 179 179 175 169 164 162 161 159 157 156 156 155 153 152 151 150 150 150 147 145 144 145 146 147 146 146 146 145 146 147 148 148 147 146 144 139 133 127 120 114 109 107 109 110 111 111 111 110 110 109 109 109 110 110 110 110 111 112 113 112 109 105 105
182 180 178 177 178 179 178 177 171 165 161 159 158 158 156 155 155 154 154 154 152 150 149 147 145 144 144 146 147 147 147 147 147 147 148 148 147 145 142 137 132 127 123 120 117 114 112 109 108 107 107 106 106 107 106 106 106 106 105 104 104 104 106 108 108 106 102 97 97
181 180 178 178 178 178 176 173 166 161 158 157 156 156 156 154 154 153 153 154 152 150 147 145 143 144 144 145 146 146 146 146 146 145 143 142 139 135 130 125 121 118 116 115 114 113 112 112 110 109 107 106 105 103 102 102 101 100 99 98 98 99 101 101 98 93 90 89 88
181 180 179 179 177 175 172 168 161 158 156 154 154 154 155 154 153 153 153 154 151 148 145 143 143 143 144 143 142 142 141 140 139 137 135 132 129 126 122 120 116 114 112 112 112 112 112 111 110 110 109 108 106 104 102 100 98 98 97 96 97 96 95 92 88 85 83 83 82
181 180 178 176 173 171 167 163 157 155 154 152 153 153 153 152 152 152 152 151 147 144 143 142 143 143 142 141 139 137 134 130 129 127 125 122 120 120 119 118 115 113 111 110 111 111 111 110 110 110 109 108 106 105 104 102 100 99 99 98 96 92 88 85 83 82 81 79 78
180 177 174 170 167 164 161 156 153 152 152 152 152 151 151 150 151 150 148 145 143 141 141 142 143 143 143 141 137 133 128 121 119 118 117 116 116 115 116 116 115 113 112 112 112 111 110 108 108 108 108 107 106 106 105 105 105 104 102 100 96 92 88 84 82 80 77 74 73
176 171 166 162 159 157 154 152 151 150 151 151 150 149 149 148 147 145 143 141 140 140 140 141 142 141 140 137 133 128 123 118 115 112 112 112 112 113 113 114 114 115 115 115 115 113 111 107 106 106 106 106 106 106 107 108 108 107 105 103 99 95 91 87 80 74 69 65 64
169 164 160 155 153 152 152 150 150 150 150 149 148 147 146 145 142 141 139 139 139 139 140 139 138 136 133 130 128 125 123 120 117 114 112 111 111 112 112 112 113 114 116 118 120 119 116 111 109 107 107 107 108 108 109 110 110 110 109 106 102 97 90 82 74 67 62 57 54
162 158 154 150 151 151 151 150 150 150 150 147 145 144 143 142 140 139 138 139 139 138 137 134 132 129 127 125 124 123 122 121 120 118 115 113 112 111 111 110 111 112 115 118 120 119 118 116 115 114 113 111 110 109 109 110 111 111 109 107 103 97 88 78 68 62 58 55 50
157 154 151 148 149 150 151 150 150 148 146 144 142 142 141 140 139 139 139 139 138 136 133 131 129 127 126 125 124 122 121 122 122 121 119 117 114 113 111 111 111 113 116 120 121 119 118 117 118 119 117 115 114 112 110 109 108 107 105 102 100 96 90 80 70 62 57 54 48
154 152 150 147 148 149 150 149 147 145 143 142 142 142 141 141 140 139 138 137 135 133 130 129 128 127 126 125 124 123 123 123 122 121 121 120 118 116 114 112 112 115 119 122 121 119 119 119 119 119 117 115 114 113 111 109 104 101 98 95 94 91 89 84 78 71 64 56 51
153 150 148 146 148 148 148 145 144 143 142 142 142 142 141 140 139 139 137 136 133 131 129 129 129 128 126 124 124 124 124 123 121 120 119 118 117 116 115 114 114 118 121 122 120 119 118 118 117 116 114 111 110 109 108 106 102 97 94 90 87 85 85 85 83 80 74 66 60
151 148 146 146 147 146 145 143 143 142 142 141 141 141 140 140 139 138 137 135 134 132 132 132 129 126 123 122 123 122 121 120 120 119 117 115 114 113 113 114 115 119 121 121 119 117 116 114 113 112 110 109 107 105 102 100 97 93 89 84 83 85 87 88 87 85 81 77 71
148 147 146 146 145 145 143 143 142 141 141 140 140 140 140 140 139 139 137 136 136 135 133 131 126 124 123 123 123 121 119 119 118 117 116 115 114 113 113 114 116 118 119 119 116 114 113 111 110 108 107 104 101 96 93 90 89 87 85 83 84 88 91 92 92 90 88 84 79
147 146 145 144 143 143 142 141 140 140 140 141 141 141 141 140 140 140 139 137 135 131 127 124 122 122 122 123 122 120 119 118 117 117 116 116 115 114 114 115 116 117 117 116 114 112 111 109 107 106 103 99 95 91 88 86 84 84 84 85 88 90 92 94 93 93 92 89 86
146 145 144 142 142 141 141 140 140 141 141 141 142 141 141 140 140 139 137 134 131 127 124 123 122 122 121 120 119 119 118 118 118 118 117 117 116 115 114 113 114 115 115 115 113 112 110 108 106 103 100 96 92 89 86 86 84 83 83 84 87 90 93 95 95 94 93 92 91
145 144 143 141 141 140 140 140 141 141 142 141 141 140 139 138 136 134 133 132 130 128 127 127 126 126 125 123 120 119 118 118 118 117 117 117 116 114 113 111 112 114 115 116 114 113 111 109 106 103 99 95 92 89 87 87 87 86 85 84 85 88 91 94 95 94 93 92 92
144 143 142 141 140 140 141 141 141 141 141 140 139 138 137 135 134 133 132 131 129 128 128 128 128 127 126 124 123 121 120 118 117 117 117 116 115 113 112 111 111 116 118 117 116 115 113 110 107 103 99 95 92 90 89 89 89 89 88 88 87 87 88 89 91 92 92 92 91
144 143 142 141 141 141 141 142 141 140 139 138 137 136 135 134 133 132 131 128 125 123 123 123 122 121 120 120 120 120 120 118 117 117 117 117 114 112 110 110 112 117 120 119 118 116 114 111 107 104 101 97 94 93 92 92 91 91 91 90 88 87 87 87 88 89 90 91 91
145 143 142 142 142 142 142 142 141 139 138 137 136 135 133 131 130 128 126 124 121 119 119 119 118 117 116 117 118 120 121 121 120 119 117 116 114 111 110 110 114 119 121 121 119 117 114 112 109 106 104 100 98 96 95 94 93 92 91 90 89 89 89 89 89 89 89 90 91
146 144 143 142 143 143 143 142 141 140 139 138 136 134 131 128 126 125 124 122 120 120 119 119 118 118 118 118 119 120 122 122 121 119 118 116 114 112 112 112 116 120 122 122 120 117 115 113 111 109 107 104 103 101 99 97 95 94 92 91 90 90 91 92 92 92 92 93 94
147 146 144 144 144 144 144 143 142 141 139 138 135 132 129 126 125 125 125 124 123 122 121 119 118 117 117 118 117 118 119 119 119 118 117 116 115 114 114 115 117 120 122 122 120 117 115 114 112 111 110 108 107 106 103 101 99 96 95 93 91 89 88 91 93 96 99 102 102
149 147 146 145 145 145 145 144 143 141 139 136 132 129 127 125 125 125 126 125 124 122 120 118 117 116 116 116 115 114 113 113 114 115 115 115 116 117 117 117 118 120 121 122 120 118 116 115 114 112 111 109 108 108 106 105 102 100 98 96 93 86 81 81 85 92 99 104 106
150 149 147 146 146 145 145 143 141 139 136 133 130 128 126 125 124 123 122 120 120 119 118 116 116 116 116 115 113 111 109 106 107 109 112 114 116 117 117 117 118 119 121 122 120 119 118 116 115 113 110 107 107 108 108 107 104 102 100 97 95 89 81 72 72 74 82 92 104
149 148 147 146 145 144 142 140 138 135 132 129 127 125 123 122 120 119 118 117 117 116 116 116 116 116 115 114 112 109 106 103 102 104 107 111 114 115 117 117 118 119 120 122 121 120 119 118 116 115 112 109 108 108 109 108 106 104 102 99 97 95 90 80 71 63 58 53 76